星链-35346(STARLINK-35346)

导读 | 豆包AI

STARLINK-35346是美国太空探索技术公司Starlink星链互联网星座的成员,于2025年10月26日发射入轨。作为星链部署的低轨互联网卫星,它承担着为全球偏远地区、海上及航空移动场景提供高速低延迟宽带网络服务的任务,是美国构建大规模低轨卫星通信网络的重要节点,推动全球卫星互联网络覆盖进一步延伸。

基本信息
目录编号:
66179
目录名称:
STARLINK-35346
国际标识:
2025-243C
轨道中心:
EARTH
卫星名称:
星链-35346
卫星全名:
星链-35346(STARLINK-35346)
卫星状态:
在轨 (已飞行211 天)
发射日期:
2025-10-26 UTC
国别 :
美国 (US)
星等 :
--
轨道信息
数据来源 国际轨道数据
星历时间: 2026-05-25T07:44:51+0800
13小时前
查看轨道信息
半长轴: 6853.343km
偏心率: 0.0001088
轨道倾角: 53.157°
近地点辐角 73.229°
升交点赤经 250.987°
平近点角 286.883°
近地点: 474.46km
远地点: 475.952km
周期: 94.105分钟
每日圈数: 15.302031
详细信息
固有亮度:
5
最大亮度:
2.5
卫星平台:
Starlink V1.0
覆盖范围:
全球
运营商:
太空探索技术公司
运营商所在国:
美国
制造商(研发单位):
太空探索技术公司
制造商所在国:
美国
使用方式:
暂无
卫星简介
Starlink 计划是 SpaceX 推出的全球卫星互联网项目,通过发射低轨道卫星,为全球尤其是偏远地区提供高速、低延迟的互联网服务。自 2019 年起,Starlink 已部署数千颗卫星,旨在缩小全球数字鸿沟,推动互联网普及。该项目还为军事、航空等行业提供通信支持,带来广泛经济效益。
2D轨道图
3D轨道图
轨道高度分析图
轨道倾角分析图
轨道综合分析图
查看轨道综合分析图